QPF
0.00 0.00 0.00 0.00 0.00 0.00 0.00 0.00 0.00 0.00 0.00 0.00 0.00 0.01 0.02 0.03 0.02 0.02 0.02 0.02 0.02 0.02 0.02 0.03 0.03 0.03 0.03 0.03 0.03 0.03 0.04 0.05 0.05 0.01 0.00 0.00 0.00 0.01 0.01 0.01 0.02 0.04 0.06
0.00 0.00 0.00 0.00 0.00 0.00 0.00 0.00 0.00 0.00 0.00 0.00 0.01 0.03 0.05 0.05 0.04 0.04 0.04 0.04 0.05 0.05 0.04 0.05 0.05 0.04 0.04 0.04 0.04 0.04 0.03 0.03 0.04 0.02 0.01 0.00 0.00 0.01 0.01 0.03 0.03 0.04 0.05
0.00 0.00 0.00 0.00 0.00 0.00 0.00 0.00 0.00 0.00 0.00 0.00 0.01 0.04 0.08 0.09 0.06 0.05 0.06 0.06 0.07 0.08 0.07 0.07 0.06 0.04 0.05 0.05 0.04 0.04 0.03 0.03 0.03 0.02 0.01 0.01 0.00 0.01 0.02 0.04 0.06 0.07 0.07
0.00 0.00 0.00 0.00 0.00 0.00 0.00 0.00 0.00 0.00 0.00 0.00 0.01 0.04 0.09 0.14 0.09 0.07 0.07 0.08 0.07 0.06 0.06 0.05 0.05 0.06 0.07 0.08 0.08 0.06 0.04 0.03 0.03 0.02 0.01 0.01 0.01 0.01 0.02 0.05 0.09 0.11 0.12
0.00 0.00 0.00 0.00 0.00 0.00 0.00 0.00 0.00 0.00 0.00 0.00 0.00 0.02 0.07 0.19 0.19 0.12 0.09 0.07 0.05 0.04 0.03 0.02 0.04 0.06 0.07 0.08 0.11 0.08 0.05 0.04 0.03 0.02 0.02 0.02 0.02 0.02 0.03 0.06 0.11 0.15 0.17
0.00 0.00 0.00 0.00 0.00 0.00 0.00 0.00 0.00 0.00 0.00 0.00 0.00 0.01 0.03 0.15 0.18 0.12 0.06 0.03 0.03 0.03 0.04 0.03 0.03 0.04 0.04 0.03 0.06 0.07 0.08 0.08 0.07 0.04 0.03 0.04 0.04 0.04 0.04 0.05 0.10 0.18 0.22
0.00 0.00 0.00 0.00 0.00 0.00 0.00 0.00 0.00 0.00 0.00 0.00 0.00 0.00 0.01 0.07 0.12 0.07 0.02 0.01 0.01 0.02 0.03 0.03 0.02 0.03 0.06 0.03 0.03 0.04 0.04 0.06 0.08 0.07 0.06 0.05 0.05 0.04 0.04 0.04 0.07 0.15 0.23
0.00 0.00 0.00 0.00 0.00 0.00 0.00 0.00 0.00 0.00 0.00 0.00 0.00 0.00 0.00 0.03 0.09 0.06 0.01 0.00 0.00 0.01 0.01 0.02 0.02 0.02 0.06 0.04 0.02 0.03 0.03 0.04 0.06 0.07 0.08 0.07 0.05 0.04 0.03 0.04 0.05 0.10 0.21
0.00 0.00 0.00 0.00 0.00 0.00 0.00 0.00 0.00 0.00 0.00 0.00 0.00 0.00 0.00 0.01 0.06 0.07 0.01 0.00 0.00 0.00 0.00 0.01 0.01 0.01 0.04 0.04 0.01 0.02 0.02 0.02 0.02 0.04 0.05 0.04 0.03 0.03 0.03 0.03 0.05 0.08 0.16
0.00 0.00 0.00 0.00 0.00 0.00 0.00 0.00 0.00 0.00 0.00 0.00 0.00 0.00 0.00 0.00 0.02 0.06 0.03 0.00 0.00 0.00 0.00 0.00 0.01 0.02 0.02 0.03 0.02 0.02 0.03 0.02 0.01 0.01 0.01 0.02 0.02 0.02 0.02 0.04 0.06 0.08 0.13
0.00 0.00 0.00 0.00 0.00 0.00 0.00 0.00 0.00 0.00 0.00 0.00 0.00 0.00 0.00 0.00 0.01 0.03 0.03 0.01 0.00 0.00 0.00 0.00 0.00 0.01 0.01 0.02 0.02 0.03 0.05 0.03 0.01 0.01 0.01 0.01 0.01 0.02 0.02 0.03 0.06 0.09 0.13
0.00 0.00 0.00 0.00 0.00 0.00 0.00 0.00 0.00 0.00 0.00 0.00 0.00 0.00 0.00 0.00 0.01 0.02 0.02 0.01 0.00 0.00 0.00 0.00 0.00 0.00 0.00 0.01 0.01 0.01 0.01 0.01 0.01 0.01 0.01 0.01 0.02 0.03 0.04 0.04 0.06 0.09 0.12
0.00 0.00 0.00 0.00 0.00 0.00 0.00 0.00 0.00 0.00 0.00 0.00 0.00 0.00 0.00 0.00 0.00 0.02 0.01 0.01 0.00 0.00 0.00 0.00 0.00 0.00 0.00 0.00 0.00 0.00 0.00 0.00 0.01 0.01 0.02 0.03 0.04 0.06 0.05 0.05 0.05 0.08 0.11
0.00 0.00 0.00 0.00 0.00 0.00 0.00 0.00 0.00 0.00 0.01 0.02 0.01 0.00 0.00 0.00 0.01 0.04 0.02 0.00 0.00 0.00 0.00 0.00 0.00 0.00 0.00 0.00 0.00 0.00 0.00 0.00 0.01 0.01 0.02 0.03 0.03 0.04 0.05 0.06 0.07 0.09 0.13
0.00 0.00 0.00 0.00 0.00 0.00 0.00 0.00 0.00 0.00 0.02 0.03 0.02 0.02 0.01 0.02 0.04 0.05 0.02 0.01 0.01 0.00 0.00 0.00 0.00 0.00 0.00 0.00 0.00 0.00 0.00 0.00 0.00 0.00 0.01 0.02 0.03 0.04 0.06 0.07 0.09 0.11 0.15
0.00 0.00 0.00 0.00 0.00 0.00 0.00 0.00 0.00 0.00 0.00 0.01 0.01 0.01 0.01 0.03 0.04 0.03 0.02 0.01 0.01 0.00 0.00 0.00 0.00 0.00 0.00 0.00 0.00 0.00 0.00 0.00 0.00 0.00 0.01 0.01 0.03 0.05 0.06 0.07 0.09 0.12 0.16
0.00 0.00 0.00 0.00 0.00 0.00 0.00 0.00 0.00 0.00 0.00 0.00 0.00 0.00 0.01 0.03 0.03 0.02 0.02 0.01 0.00 0.00 0.00 0.00 0.00 0.00 0.00 0.00 0.00 0.00 0.00 0.00 0.00 0.00 0.00 0.01 0.02 0.03 0.05 0.07 0.09 0.12 0.16
0.00 0.00 0.00 0.00 0.00 0.00 0.00 0.00 0.00 0.00 0.00 0.00 0.00 0.00 0.01 0.02 0.02 0.02 0.01 0.00 0.00 0.00 0.00 0.00 0.00 0.00 0.00 0.00 0.00 0.00 0.00 0.00 0.00 0.00 0.00 0.00 0.01 0.02 0.04 0.06 0.09 0.12 0.15
0.00 0.00 0.00 0.00 0.00 0.00 0.00 0.00 0.00 0.00 0.00 0.00 0.00 0.00 0.00 0.01 0.00 0.00 0.00 0.00 0.01 0.00 0.00 0.00 0.00 0.00 0.00 0.00 0.00 0.00 0.00 0.00 0.00 0.00 0.00 0.00 0.01 0.01 0.03 0.05 0.07 0.10 0.14
0.00 0.00 0.00 0.00 0.00 0.00 0.00 0.00 0.00 0.00 0.00 0.00 0.00 0.01 0.02 0.02 0.01 0.00 0.00 0.01 0.01 0.01 0.01 0.01 0.00 0.00 0.00 0.00 0.00 0.00 0.00 0.00 0.00 0.00 0.00 0.00 0.00 0.01 0.02 0.03 0.05 0.07 0.11
0.00 0.00 0.00 0.00 0.00 0.00 0.00 0.00 0.00 0.00 0.00 0.00 0.00 0.01 0.03 0.02 0.01 0.01 0.01 0.01 0.02 0.03 0.02 0.02 0.01 0.01 0.00 0.00 0.00 0.00 0.00 0.00 0.00 0.00 0.00 0.00 0.00 0.00 0.01 0.02 0.03 0.05 0.08
0.00 0.00 0.00 0.00 0.00 0.00 0.00 0.00 0.00 0.00 0.00 0.00 0.00 0.00 0.00 0.00 0.00 0.01 0.01 0.02 0.02 0.03 0.03 0.03 0.02 0.01 0.01 0.01 0.00 0.00 0.00 0.00 0.00 0.00 0.00 0.00 0.00 0.00 0.00 0.01 0.02 0.03 0.05
0.00 0.00 0.00 0.00 0.00 0.00 0.00 0.00 0.00 0.00 0.00 0.00 0.00 0.00 0.00 0.00 0.00 0.01 0.01 0.01 0.02 0.02 0.03 0.03 0.03 0.02 0.02 0.01 0.01 0.00 0.00 0.00 0.00 0.00 0.00 0.00 0.00 0.00 0.00 0.00 0.01 0.02 0.03
0.00 0.00 0.00 0.00 0.00 0.00 0.00 0.00 0.00 0.00 0.00 0.00 0.00 0.00 0.00 0.00 0.00 0.00 0.01 0.01 0.01 0.01 0.02 0.04 0.04 0.03 0.03 0.03 0.02 0.01 0.00 0.00 0.00 0.00 0.00 0.00 0.00 0.00 0.00 0.00 0.00 0.01 0.02
0.00 0.00 0.00 0.00 0.00 0.00 0.00 0.00 0.00 0.00 0.00 0.00 0.00 0.00 0.00 0.00 0.00 0.00 0.00 0.00 0.01 0.01 0.01 0.02 0.04 0.05 0.05 0.04 0.03 0.02 0.01 0.00 0.00 0.00 0.00 0.00 0.00 0.00 0.00 0.00 0.00 0.00 0.01
0.00 0.00 0.00 0.00 0.00 0.00 0.00 0.00 0.00 0.00 0.00 0.00 0.00 0.00 0.00 0.00 0.00 0.00 0.00 0.01 0.01 0.01 0.01 0.02 0.03 0.05 0.05 0.05 0.04 0.03 0.02 0.01 0.00 0.00 0.00 0.00 0.00 0.00 0.00 0.00 0.00 0.00 0.00
MSLP
1035.73 1035.34 1034.90 1034.39 1033.79 1033.09 1032.28 1031.39 1030.41 1029.36 1028.27 1027.14 1025.99 1024.84 1023.71 1022.64 1021.64 1020.74 1019.97 1019.33 1018.80 1018.36 1017.97 1017.58 1017.15 1016.64 1016.02 1015.30 1014.49 1013.63 1012.76 1011.92 1011.13 1010.41 1009.77 1009.19 1008.64 1008.11 1007.56 1007.00 1006.44 1005.88 1005.38
1035.61 1035.18 1034.72 1034.20 1033.60 1032.92 1032.15 1031.29 1030.34 1029.33 1028.25 1027.12 1025.96 1024.79 1023.64 1022.53 1021.51 1020.59 1019.79 1019.11 1018.56 1018.08 1017.65 1017.22 1016.75 1016.21 1015.58 1014.87 1014.09 1013.28 1012.47 1011.69 1010.96 1010.29 1009.66 1009.07 1008.49 1007.88 1007.26 1006.62 1005.99 1005.38 1004.86
1035.53 1035.06 1034.57 1034.03 1033.44 1032.78 1032.04 1031.22 1030.32 1029.35 1028.32 1027.22 1026.09 1024.93 1023.80 1022.70 1021.69 1020.77 1019.97 1019.29 1018.70 1018.19 1017.71 1017.23 1016.70 1016.11 1015.45 1014.72 1013.94 1013.16 1012.39 1011.66 1010.98 1010.33 1009.71 1009.09 1008.45 1007.76 1007.04 1006.30 1005.58 1004.91 1004.35
1035.48 1034.98 1034.46 1033.91 1033.32 1032.67 1031.97 1031.19 1030.35 1029.44 1028.46 1027.42 1026.34 1025.25 1024.16 1023.11 1022.13 1021.25 1020.47 1019.79 1019.19 1018.64 1018.11 1017.56 1016.97 1016.31 1015.59 1014.82 1014.04 1013.26 1012.52 1011.82 1011.16 1010.52 1009.89 1009.23 1008.52 1007.75 1006.93 1006.09 1005.27 1004.53 1003.93
1035.46 1034.95 1034.41 1033.84 1033.24 1032.61 1031.94 1031.21 1030.43 1029.58 1028.67 1027.71 1026.70 1025.67 1024.65 1023.67 1022.75 1021.91 1021.17 1020.50 1019.90 1019.32 1018.74 1018.12 1017.46 1016.72 1015.94 1015.13 1014.31 1013.52 1012.78 1012.08 1011.43 1010.80 1010.15 1009.46 1008.69 1007.85 1006.95 1006.02 1005.12 1004.31 1003.66
1035.46 1034.94 1034.38 1033.81 1033.21 1032.59 1031.94 1031.26 1030.53 1029.75 1028.91 1028.02 1027.09 1026.14 1025.19 1024.27 1023.42 1022.63 1021.92 1021.28 1020.67 1020.07 1019.45 1018.77 1018.03 1017.23 1016.39 1015.52 1014.66 1013.84 1013.08 1012.39 1011.73 1011.10 1010.45 1009.73 1008.93 1008.04 1007.08 1006.09 1005.14 1004.27 1003.58
1035.45 1034.93 1034.37 1033.79 1033.19 1032.59 1031.97 1031.32 1030.65 1029.92 1029.15 1028.32 1027.45 1026.56 1025.68 1024.82 1024.01 1023.27 1022.59 1021.96 1021.35 1020.74 1020.08 1019.37 1018.58 1017.72 1016.82 1015.90 1015.01 1014.16 1013.38 1012.68 1012.02 1011.39 1010.73 1010.01 1009.20 1008.30 1007.32 1006.31 1005.32 1004.43 1003.70
1035.40 1034.89 1034.33 1033.75 1033.16 1032.57 1031.98 1031.37 1030.73 1030.06 1029.33 1028.55 1027.73 1026.88 1026.03 1025.21 1024.43 1023.71 1023.05 1022.44 1021.83 1021.22 1020.55 1019.82 1019.00 1018.12 1017.18 1016.24 1015.32 1014.45 1013.66 1012.94 1012.28 1011.65 1011.00 1010.29 1009.50 1008.61 1007.64 1006.64 1005.65 1004.75 1004.01
1035.29 1034.78 1034.24 1033.67 1033.09 1032.52 1031.95 1031.37 1030.76 1030.12 1029.42 1028.66 1027.86 1027.03 1026.19 1025.38 1024.61 1023.90 1023.26 1022.65 1022.06 1021.46 1020.81 1020.08 1019.28 1018.41 1017.48 1016.53 1015.61 1014.73 1013.93 1013.21 1012.55 1011.92 1011.28 1010.59 1009.82 1008.96 1008.03 1007.05 1006.09 1005.20 1004.44
1035.08 1034.59 1034.06 1033.50 1032.95 1032.40 1031.85 1031.29 1030.70 1030.07 1029.38 1028.63 1027.83 1026.99 1026.15 1025.33 1024.55 1023.85 1023.21 1022.62 1022.06 1021.49 1020.89 1020.21 1019.46 1018.63 1017.75 1016.83 1015.93 1015.07 1014.27 1013.54 1012.87 1012.24 1011.60 1010.92 1010.17 1009.35 1008.45 1007.51 1006.58 1005.71 1004.96
1034.78 1034.31 1033.80 1033.26 1032.72 1032.19 1031.66 1031.12 1030.54 1029.92 1029.22 1028.46 1027.64 1026.78 1025.92 1025.08 1024.30 1023.59 1022.97 1022.41 1021.90 1021.39 1020.86 1020.27 1019.61 1018.87 1018.06 1017.21 1016.35 1015.52 1014.73 1013.99 1013.31 1012.66 1012.00 1011.32 1010.58 1009.77 1008.90 1008.00 1007.09 1006.25 1005.50
1034.40 1033.95 1033.45 1032.94 1032.42 1031.91 1031.40 1030.86 1030.29 1029.66 1028.95 1028.17 1027.33 1026.44 1025.56 1024.70 1023.92 1023.22 1022.62 1022.11 1021.66 1021.24 1020.81 1020.34 1019.79 1019.17 1018.47 1017.71 1016.92 1016.12 1015.35 1014.61 1013.90 1013.21 1012.52 1011.81 1011.05 1010.25 1009.39 1008.50 1007.62 1006.79 1006.06
1033.97 1033.53 1033.05 1032.56 1032.07 1031.58 1031.08 1030.55 1029.97 1029.33 1028.61 1027.81 1026.94 1026.04 1025.14 1024.28 1023.50 1022.82 1022.26 1021.81 1021.44 1021.12 1020.81 1020.46 1020.06 1019.57 1018.99 1018.34 1017.63 1016.88 1016.13 1015.38 1014.64 1013.91 1013.17 1012.41 1011.62 1010.79 1009.92 1009.03 1008.16 1007.35 1006.64
1033.50 1033.09 1032.65 1032.18 1031.72 1031.24 1030.75 1030.23 1029.65 1028.99 1028.26 1027.44 1026.56 1025.65 1024.75 1023.90 1023.14 1022.49 1021.97 1021.58 1021.30 1021.08 1020.88 1020.67 1020.40 1020.04 1019.59 1019.05 1018.43 1017.74 1017.02 1016.27 1015.51 1014.74 1013.95 1013.14 1012.29 1011.42 1010.52 1009.63 1008.77 1007.96 1007.27
1033.06 1032.68 1032.27 1031.84 1031.40 1030.95 1030.47 1029.95 1029.36 1028.70 1027.96 1027.14 1026.25 1025.35 1024.46 1023.62 1022.89 1022.28 1021.81 1021.48 1021.26 1021.13 1021.03 1020.92 1020.77 1020.53 1020.20 1019.77 1019.23 1018.62 1017.94 1017.21 1016.45 1015.65 1014.82 1013.96 1013.08 1012.17 1011.25 1010.34 1009.48 1008.69 1008.01
1032.66 1032.33 1031.97 1031.58 1031.17 1030.74 1030.27 1029.76 1029.17 1028.51 1027.77 1026.95 1026.08 1025.19 1024.32 1023.51 1022.81 1022.23 1021.80 1021.50 1021.33 1021.25 1021.21 1021.17 1021.10 1020.96 1020.72 1020.38 1019.95 1019.41 1018.80 1018.12 1017.38 1016.59 1015.76 1014.89 1013.98 1013.06 1012.13 1011.22 1010.35 1009.58 1008.91
1032.33 1032.05 1031.74 1031.40 1031.03 1030.63 1030.18 1029.68 1029.10 1028.45 1027.72 1026.91 1026.06 1025.20 1024.36 1023.59 1022.91 1022.35 1021.93 1021.64 1021.48 1021.40 1021.37 1021.36 1021.33 1021.24 1021.08 1020.82 1020.48 1020.04 1019.51 1018.91 1018.24 1017.51 1016.72 1015.88 1014.99 1014.09 1013.17 1012.27 1011.42 1010.65 1010.01
1032.04 1031.83 1031.59 1031.30 1030.98 1030.61 1030.19 1029.71 1029.15 1028.51 1027.80 1027.03 1026.21 1025.38 1024.58 1023.83 1023.17 1022.62 1022.18 1021.87 1021.67 1021.55 1021.49 1021.45 1021.41 1021.34 1021.22 1021.03 1020.77 1020.43 1020.02 1019.54 1018.98 1018.35 1017.66 1016.90 1016.08 1015.23 1014.35 1013.49 1012.66 1011.92 1011.28
1031.78 1031.65 1031.48 1031.26 1030.98 1030.66 1030.27 1029.81 1029.28 1028.68 1028.00 1027.26 1026.49 1025.71 1024.94 1024.22 1023.57 1023.00 1022.53 1022.16 1021.89 1021.68 1021.54 1021.43 1021.34 1021.25 1021.13 1020.99 1020.81 1020.59 1020.31 1019.97 1019.56 1019.09 1018.53 1017.90 1017.19 1016.43 1015.63 1014.82 1014.04 1013.32 1012.69
1031.50 1031.46 1031.36 1031.21 1030.99 1030.71 1030.37 1029.95 1029.45 1028.89 1028.26 1027.57 1026.85 1026.12 1025.40 1024.70 1024.05 1023.46 1022.93 1022.48 1022.10 1021.78 1021.52 1021.30 1021.13 1020.98 1020.85 1020.73 1020.62 1020.50 1020.37 1020.19 1019.96 1019.66 1019.28 1018.81 1018.25 1017.61 1016.92 1016.19 1015.47 1014.78 1014.17
1031.18 1031.22 1031.19 1031.11 1030.95 1030.73 1030.43 1030.05 1029.60 1029.09 1028.51 1027.89 1027.24 1026.56 1025.88 1025.21 1024.57 1023.94 1023.36 1022.81 1022.31 1021.85 1021.45 1021.10 1020.81 1020.58 1020.41 1020.30 1020.24 1020.22 1020.22 1020.20 1020.16 1020.05 1019.87 1019.58 1019.19 1018.70 1018.13 1017.50 1016.85 1016.21 1015.63
1030.78 1030.90 1030.94 1030.92 1030.83 1030.66 1030.41 1030.08 1029.69 1029.23 1028.72 1028.17 1027.58 1026.97 1026.35 1025.71 1025.06 1024.41 1023.76 1023.12 1022.49 1021.89 1021.34 1020.84 1020.42 1020.09 1019.86 1019.74 1019.72 1019.77 1019.88 1020.02 1020.15 1020.23 1020.24 1020.14 1019.93 1019.60 1019.16 1018.65 1018.10 1017.53 1017.00
1030.29 1030.47 1030.59 1030.63 1030.59 1030.47 1030.28 1030.00 1029.67 1029.28 1028.84 1028.36 1027.85 1027.31 1026.73 1026.13 1025.49 1024.81 1024.10 1023.37 1022.63 1021.89 1021.19 1020.55 1020.00 1019.56 1019.26 1019.10 1019.09 1019.19 1019.39 1019.66 1019.93 1020.19 1020.37 1020.45 1020.42 1020.25 1019.97 1019.59 1019.15 1018.68 1018.22
1029.71 1029.96 1030.14 1030.24 1030.26 1030.19 1030.04 1029.83 1029.55 1029.22 1028.85 1028.45 1028.01 1027.53 1027.01 1026.44 1025.81 1025.12 1024.37 1023.55 1022.71 1021.85 1021.01 1020.24 1019.56 1019.02 1018.63 1018.42 1018.39 1018.52 1018.78 1019.14 1019.54 1019.93 1020.27 1020.52 1020.65 1020.65 1020.53 1020.30 1019.99 1019.63 1019.27
1029.05 1029.37 1029.61 1029.77 1029.84 1029.82 1029.73 1029.56 1029.34 1029.07 1028.77 1028.43 1028.06 1027.64 1027.17 1026.63 1026.02 1025.31 1024.52 1023.65 1022.71 1021.75 1020.80 1019.91 1019.11 1018.47 1018.00 1017.73 1017.67 1017.80 1018.09 1018.51 1019.00 1019.51 1019.98 1020.38 1020.66 1020.83 1020.86 1020.79 1020.63 1020.41 1020.18
1028.35 1028.73 1029.03 1029.25 1029.37 1029.40 1029.36 1029.24 1029.07 1028.85 1028.61 1028.32 1028.01 1027.64 1027.21 1026.70 1026.10 1025.39 1024.57 1023.64 1022.64 1021.60 1020.56 1019.56 1018.67 1017.93 1017.38 1017.06 1016.95 1017.07 1017.37 1017.82 1018.37 1018.96 1019.55 1020.07 1020.51 1020.83 1021.03 1021.12 1021.12 1021.05 1020.96
Thickness
5272 5259 5247 5234 5222 5208 5195 5181 5167 5152 5140 5130 5122 5116 5113 5111 5109 5108 5110 5117 5126 5135 5145 5156 5167 5179 5190 5202 5213 5226 5242 5258 5279 5301 5321 5342 5364 5387 5413 5439 5466 5489 5509
5269 5256 5244 5232 5220 5207 5194 5181 5167 5153 5141 5130 5124 5120 5118 5119 5118 5119 5121 5125 5131 5138 5147 5156 5166 5177 5187 5198 5210 5222 5237 5254 5272 5293 5314 5335 5356 5377 5401 5427 5454 5478 5499
5266 5254 5242 5230 5219 5207 5194 5181 5168 5155 5143 5133 5127 5123 5122 5124 5124 5125 5127 5130 5134 5139 5146 5154 5163 5173 5183 5194 5206 5218 5232 5250 5267 5286 5306 5328 5349 5371 5393 5418 5443 5466 5489
5264 5252 5240 5229 5218 5206 5194 5182 5170 5158 5147 5137 5129 5125 5124 5126 5128 5128 5129 5131 5134 5138 5144 5151 5160 5169 5179 5190 5202 5213 5228 5244 5263 5281 5300 5321 5343 5365 5386 5408 5432 5455 5478
5263 5251 5239 5229 5217 5206 5195 5184 5172 5161 5149 5139 5132 5128 5126 5128 5132 5131 5129 5129 5131 5135 5141 5147 5156 5166 5177 5187 5198 5209 5222 5238 5256 5274 5293 5313 5334 5355 5375 5395 5419 5443 5467
5261 5250 5239 5229 5218 5208 5197 5186 5175 5164 5153 5143 5135 5129 5127 5127 5133 5134 5130 5126 5128 5130 5136 5143 5153 5162 5172 5181 5193 5204 5217 5232 5250 5265 5283 5302 5322 5342 5363 5384 5406 5431 5454
5261 5249 5239 5229 5219 5209 5199 5189 5178 5168 5157 5148 5139 5133 5128 5128 5133 5132 5129 5124 5125 5127 5132 5139 5149 5158 5168 5176 5186 5198 5210 5225 5242 5257 5275 5292 5313 5332 5353 5375 5394 5415 5438
5261 5250 5240 5230 5220 5210 5201 5191 5181 5172 5162 5152 5144 5137 5131 5129 5132 5132 5127 5124 5123 5126 5130 5136 5145 5155 5167 5176 5183 5194 5206 5219 5235 5252 5270 5288 5307 5325 5344 5362 5381 5403 5425
5262 5252 5242 5232 5222 5213 5203 5194 5185 5176 5168 5159 5151 5143 5135 5132 5133 5133 5128 5124 5123 5125 5129 5135 5144 5153 5165 5175 5181 5192 5205 5216 5231 5248 5266 5283 5302 5320 5338 5355 5375 5397 5420
5265 5255 5245 5235 5224 5215 5206 5197 5189 5180 5173 5165 5157 5149 5141 5136 5136 5135 5132 5126 5124 5125 5129 5134 5143 5153 5163 5172 5179 5190 5203 5213 5227 5244 5262 5279 5296 5314 5331 5346 5362 5383 5405
5268 5258 5249 5238 5228 5219 5210 5201 5193 5185 5177 5169 5162 5156 5149 5143 5140 5139 5137 5130 5126 5126 5129 5135 5142 5152 5159 5169 5178 5188 5200 5211 5223 5239 5257 5275 5292 5309 5325 5340 5355 5370 5390
5270 5260 5251 5242 5233 5225 5214 5206 5199 5191 5184 5178 5171 5166 5160 5153 5147 5144 5141 5137 5133 5128 5129 5135 5142 5150 5157 5166 5175 5186 5197 5209 5221 5236 5252 5268 5285 5302 5318 5334 5350 5365 5381
5271 5262 5253 5245 5237 5228 5219 5212 5205 5199 5192 5188 5181 5175 5169 5164 5157 5152 5147 5143 5139 5134 5133 5138 5143 5149 5154 5162 5173 5183 5193 5205 5217 5230 5244 5260 5276 5292 5311 5328 5346 5361 5376
5272 5263 5256 5247 5240 5233 5226 5219 5212 5206 5201 5197 5190 5183 5177 5172 5168 5163 5155 5149 5146 5142 5137 5139 5142 5147 5154 5161 5170 5179 5189 5200 5211 5223 5237 5253 5270 5287 5303 5318 5334 5350 5366
5274 5266 5258 5251 5242 5235 5229 5222 5217 5212 5207 5203 5197 5190 5186 5182 5177 5173 5166 5160 5154 5150 5145 5143 5145 5148 5154 5161 5168 5177 5186 5196 5206 5219 5231 5247 5262 5278 5292 5306 5320 5336 5350
5277 5269 5261 5254 5247 5240 5231 5226 5220 5216 5212 5207 5202 5197 5192 5188 5186 5181 5176 5170 5164 5159 5152 5147 5146 5148 5152 5158 5165 5173 5182 5191 5201 5212 5224 5237 5251 5265 5279 5293 5306 5320 5334
5280 5271 5264 5257 5250 5243 5237 5230 5225 5221 5215 5210 5205 5201 5198 5196 5192 5187 5183 5177 5171 5165 5156 5151 5149 5150 5153 5157 5162 5169 5177 5185 5195 5205 5216 5228 5241 5254 5266 5279 5292 5304 5317
5283 5275 5267 5258 5250 5243 5236 5230 5225 5221 5217 5213 5208 5204 5202 5200 5196 5192 5187 5182 5176 5171 5164 5159 5156 5155 5156 5158 5162 5168 5174 5182 5191 5199 5209 5219 5231 5243 5255 5265 5277 5288 5300
5286 5276 5269 5261 5252 5245 5238 5232 5226 5221 5216 5213 5210 5207 5204 5201 5197 5194 5190 5184 5181 5177 5172 5168 5164 5162 5161 5161 5163 5167 5172 5178 5185 5193 5202 5211 5221 5232 5242 5253 5263 5275 5286
5288 5280 5273 5263 5254 5247 5240 5234 5228 5222 5217 5214 5210 5207 5207 5203 5199 5195 5192 5188 5185 5182 5179 5176 5173 5170 5167 5165 5165 5166 5170 5175 5180 5187 5194 5203 5212 5222 5231 5241 5251 5261 5272
5291 5281 5274 5264 5255 5248 5241 5234 5228 5223 5218 5214 5210 5207 5208 5202 5197 5195 5192 5190 5187 5185 5184 5182 5180 5177 5174 5170 5168 5167 5169 5172 5176 5181 5187 5195 5203 5212 5221 5230 5240 5249 5259
5293 5282 5273 5264 5257 5250 5244 5237 5230 5224 5219 5215 5211 5209 5207 5202 5198 5195 5193 5191 5189 5188 5187 5186 5186 5184 5180 5177 5173 5170 5169 5170 5172 5176 5181 5187 5194 5202 5211 5220 5229 5238 5247
5295 5284 5274 5266 5259 5253 5245 5238 5231 5226 5221 5217 5213 5210 5206 5203 5199 5197 5194 5193 5192 5191 5191 5190 5191 5190 5187 5184 5180 5175 5172 5170 5170 5172 5175 5180 5186 5193 5200 5208 5217 5227 5236
5297 5286 5276 5268 5260 5252 5245 5239 5233 5228 5223 5218 5214 5210 5206 5203 5200 5198 5196 5195 5194 5194 5194 5194 5194 5194 5193 5190 5186 5181 5176 5172 5169 5168 5169 5173 5177 5184 5191 5198 5206 5215 5224
5300 5289 5279 5269 5261 5253 5246 5240 5234 5229 5223 5219 5215 5211 5206 5204 5201 5199 5198 5197 5197 5197 5198 5198 5198 5198 5197 5195 5191 5186 5180 5174 5169 5165 5164 5165 5169 5174 5180 5187 5195 5203 5211
5303 5292 5281 5272 5262 5254 5247 5240 5235 5229 5224 5220 5215 5210 5207 5204 5202 5201 5200 5199 5199 5200 5201 5201 5202 5202 5201 5199 5195 5190 5183 5176 5169 5163 5160 5159 5160 5164 5170 5176 5184 5191 5198